Location: Unspecified
(0.0000°N, 0.0000°E)
Time: 01:07:15
(UTC+00:00)

RS-15 - Pass Details

Date: 15 December 2017
Orbit: 1891 x 2154 km, 64.8° (Epoch: 19 July)

Event Time Altitude Azimuth Distance (km) Brightness Sun altitude
Exits shadow 01:30:35 30° 155° (SSE) 2,978 9.1 -57.1°
Drops below altitude 10° 01:35:01 10° 157° (SSE) 4,274 10.1 -56.4°
Sets 01:38:13 0° 157° (SSE) 5,272 10.8 -55.8°
